Regional Weather Roundup
Issued by NWS

Home | Current Version | Previous Version | Text Only | Print | Product List | Glossary Off
Versions: 1 2 3 4 5 6 7 8 9 10 11 12 13 14 15 16 17 18 19 20 21 22 23 24 25 26 27 28 29 30 31 32 33 34 35 36 37 38 39 40 41 42 43 44 45 46 47 48 49 50

964
ASUS43 KBIS 280502
RWRND

NORTH DAKOTA REGIONAL WEATHER ROUNDUP
NATIONAL WEATHER SERVICE BISMARCK ND
1200 AM CDT FRI JUL 28 2017

NOTE: "FAIR" INDICATES FEW OR NO CLOUDS BELOW 12,000 FEET WITH NO
SIGNIFICANT WEATHER AND/OR OBSTRUCTIONS TO VISIBILITY.


NDZ001>003-009>011-017-280600-
NORTHWEST NORTH DAKOTA

CITY           SKY/WX    TMP DP  RH WIND       PRES   REMARKS
WILLISTON      CLEAR     69  62  78 SE6       30.01S
MINOT          CLOUDY    74  60  61 SE9       30.03S
MINOT AFB      CLOUDY    70  59  69 SE7       30.02S HAZE
$$

NDZ018>021-031>035-040>046-280600-
SOUTHWEST NORTH DAKOTA

CITY           SKY/WX    TMP DP  RH WIND       PRES   REMARKS
BISMARCK       CLEAR     69  58  67 E3        30.04R
DICKINSON      CLEAR     63  60  90 E6        30.04S
GARRISON         N/A     68  63  84 SE3       30.03S
HETTINGER ARPT CLEAR     58  53  84 CALM      30.07R
$$

NDZ004>008-012>016-024-026-027-054-280600-
NORTHEAST NORTH DAKOTA

CITY           SKY/WX    TMP DP  RH WIND       PRES   REMARKS
GRAND FORKS    CLEAR     64  62  93 S3        30.05S
GRND FRKS AFB  PTCLDY    61  59  92 SW3       30.06S
DEVILS LAKE    PTCLDY    68  60  75 SE6       30.07S
$$

NDZ022-023-025-028>030-036>039-047>053-280600-
SOUTHEAST NORTH DAKOTA

CITY           SKY/WX    TMP DP  RH WIND       PRES   REMARKS
FARGO          CLEAR     64  60  87 CALM      30.06S
JAMESTOWN      CLEAR     66  59  78 SE6       30.06S
$$





USA.gov is the U.S. government's official web portal to all federal, state and local government web resources and services.